Weather reports worldwide

Advertisment
Charlwood, United Kingdom (3769): temperature & dewpoint: 14.10.2017 08:00:00 - 20.10.2017 08:00:00 (BST)Charlwood, United Kingdom (3769): temperature -20cm & temperature -100cm: 14.10.2017 08:00:00 - 20.10.2017 08:00:00 (BST)Charlwood, United Kingdom (3769): wind speed & gusts: 14.10.2017 08:00:00 - 20.10.2017 08:00:00 (BST)Charlwood, United Kingdom (3769): wind direction: 14.10.2017 08:00:00 - 20.10.2017 08:00:00 (BST)Charlwood, United Kingdom (3769): reduced air pressure: 14.10.2017 08:00:00 - 20.10.2017 08:00:00 (BST)Charlwood, United Kingdom (3769): visibility: 14.10.2017 08:00:00 - 20.10.2017 08:00:00 (BST)Charlwood, United Kingdom (3769): sunshine duration: 14.10.2017 08:00:00 - 20.10.2017 08:00:00 (BST)Charlwood, United Kingdom (3769): precipitation: 14.10.2017 08:00:00 - 20.10.2017 08:00:00 (BST)
Date & Time tt [°C] td [°C] tt -20cm [°C] tt -100cm [°C] ff [km/h] ff [kn] fx [km/h] fx [kn] dd ppp [hPa] vv [km] sd [min] rr [mm]
20.10.2017 08:00:00 - - - - - - - - - - - - 0,0
20.10.2017 07:00:00 12,1 10,2 - - 21 11 - - SW 1000,2 50 0 0,0
20.10.2017 06:00:00 11,9 11,1 - - 18 10 48 26 SW 999,4 14 0 0,4
20.10.2017 05:00:00 12,1 11,4 - - 21 11 - - SW 998,5 3,0 0 1,2
20.10.2017 04:00:00 11,9 11,1 - - 21 11 - - SSW 998,6 3,3 0 0,4
20.10.2017 03:00:00 11,7 10,5 - - 16 9 - - SSW 999,0 13 0 0,0
20.10.2017 02:00:00 12,0 10,2 - - 15 8 - - SSW 999,5 19 0 0,0
20.10.2017 01:00:00 12,0 10,7 - - 15 8 - - SSW 999,5 27 - 0,0
20.10.2017 00:00:00 13,1 12,1 - - 21 11 52 28 SSW 999,2 15 0 0,8
19.10.2017 23:00:00 13,4 12,8 - - 22 12 50 27 S 999,4 3,6 0 2,6
19.10.2017 22:00:00 13,6 12,7 - - 15 8 - - S 1000,5 3,9 0 1,6
19.10.2017 21:00:00 14,6 12,5 - - 21 11 - - S 1000,5 5 0 0,6
19.10.2017 20:00:00 15,4 13,4 - - 13 7 - - S 1001,4 30 0 0,0
19.10.2017 19:00:00 14,9 13,9 - - 9 5 - - S 1001,6 13 0 0,0
19.10.2017 18:00:00 14,2 13,0 - - 9 5 - - S 1002,0 15 0 0,0
19.10.2017 17:00:00 15,0 13,6 - - 15 8 - - SSW 1002,3 8 0 0,2
19.10.2017 16:00:00 15,7 14,2 - - 21 11 - - SSW 1002,2 8 0 0,0
19.10.2017 15:00:00 15,5 14,5 - - 18 10 - - SSW 1002,1 6 0 0,0
19.10.2017 14:00:00 16,2 14,4 - - 16 9 - - S 1002,3 13 0 0,0
19.10.2017 13:00:00 16,5 14,3 - - 15 8 - - SSE 1003,0 15 0 0,0
19.10.2017 12:00:00 15,9 14,8 - - 11 6 - - SE 1004,1 10 0 0,0
19.10.2017 11:00:00 15,5 14,4 - - 9 5 - - ESE 1004,6 10 0 0,0
19.10.2017 10:00:00 15,1 14,8 14,5 14,2 8 4 - - NE 1004,9 1,8 0 0,0
19.10.2017 09:00:00 15,2 15,1 - - 5 3 - - ENE 1005,6 2,9 0 0,0
19.10.2017 08:00:00 14,9 14,8 - - 8 4 - - ESE 1005,8 2,7 0 0,0
19.10.2017 07:00:00 14,8 14,7 - - 8 4 - - SE 1006,3 1,0 0 0,0
19.10.2017 06:00:00 14,6 14,4 - - 4 2 - - ESE 1006,8 0,2 0 0,0
19.10.2017 05:00:00 14,5 14,3 - - 4 2 - - ESE 1007,3 1,0 0 0,0
19.10.2017 04:00:00 14,1 13,8 - - 5 3 - - E 1007,8 1,0 0 0,0
19.10.2017 03:00:00 14,6 14,3 - - 2 1 - - ENE 1008,9 1,3 0 0,0
19.10.2017 02:00:00 14,5 14,2 - - 4 2 - - SSE 1009,4 1,5 0 0,0
19.10.2017 01:00:00 14,8 14,5 - - 4 2 - - SSE 1009,4 2,6 - 0,0
19.10.2017 00:00:00 14,9 14,6 - - 4 2 - - SSE 1009,8 2,1 0 1,0
18.10.2017 23:00:00 14,8 14,4 - - 4 2 - - SSE 1009,7 2,7 0 0,0
18.10.2017 22:00:00 14,8 14,2 - - 4 2 - - SE 1010,0 2,5 0 0,0
18.10.2017 21:00:00 15,3 14,8 - - 4 2 - - S 1010,1 2,2 0 0,0
18.10.2017 20:00:00 15,4 14,9 - - 5 3 - - S 1010,5 2,2 0 0,0
18.10.2017 19:00:00 15,8 14,9 - - 8 4 - - S 1010,2 1,4 0 0,0
18.10.2017 18:00:00 16,2 15,1 - - 5 3 - - S 1009,8 5 0 0,0
18.10.2017 17:00:00 16,2 15,0 - - 8 4 - - E 1009,7 3,3 0 0,0
18.10.2017 16:00:00 16,3 14,9 - - 5 3 - - E 1009,9 3,4 0 0,0
18.10.2017 15:00:00 15,7 14,7 - - 8 4 - - ESE 1010,2 2,5 0 0,0
18.10.2017 14:00:00 15,3 14,1 - - 8 4 - - ESE 1010,5 4,4 0 0,0
18.10.2017 13:00:00 15,0 13,9 - - 8 4 - - E 1011,0 6 0 0,0
18.10.2017 12:00:00 14,0 13,2 - - 5 3 - - NE 1011,4 8 0 0,0
18.10.2017 11:00:00 13,1 12,3 - - 4 2 - - NE 1011,6 11 0 0,0
18.10.2017 10:00:00 12,5 11,9 14,2 14,4 4 2 - - ENE 1011,7 12 0 0,4
18.10.2017 09:00:00 11,8 11,1 - - 8 4 - - NE 1011,6 12 0 0,6
18.10.2017 08:00:00 11,5 10,4 - - 8 4 - - NNE 1011,7 11 0 0,2
18.10.2017 07:00:00 11,3 10,0 - - 8 4 - - NNE 1011,6 18 0 0,0
18.10.2017 06:00:00 11,2 9,5 - - 8 4 - - NNE 1012,3 13 0 0,2
18.10.2017 05:00:00 11,0 9,1 - - 8 4 - - NNE 1012,6 13 0 0,0
18.10.2017 04:00:00 11,3 8,1 - - 8 4 - - NNE 1013,3 15 0 0,0
18.10.2017 03:00:00 11,2 8,3 - - 8 4 - - NNE 1013,6 22 0 0,0
18.10.2017 02:00:00 10,9 8,4 - - 8 4 - - NNE 1014,5 25 0 0,0
18.10.2017 01:00:00 10,9 8,3 - - 5 3 - - N 1015,0 19 - 0,0
18.10.2017 00:00:00 10,1 7,8 - - 5 3 - - NNE 1015,3 21 0 0,0
17.10.2017 23:00:00 9,1 8,4 - - 2 1 - - N 1016,4 16 0 0,0
17.10.2017 22:00:00 8,4 7,2 - - 0 0 - - N 1016,8 16 0 0,0
17.10.2017 21:00:00 9,6 8,1 - - 2 1 - - NW 1016,9 23 0 0,0
17.10.2017 20:00:00 9,8 8,0 - - 0 0 - - N 1017,2 25 0 0,0
17.10.2017 19:00:00 10,7 8,7 - - 2 1 - - W 1017,4 22 0 0,0
17.10.2017 18:00:00 12,1 9,2 - - 2 1 - - WNW 1017,6 29 0 0,0
17.10.2017 17:00:00 13,5 9,2 - - 2 1 - - SW 1017,9 23 0 0,0
17.10.2017 16:00:00 14,0 7,7 - - 5 3 - - W 1018,5 35 0 0,0
17.10.2017 15:00:00 14,7 7,9 - - 8 4 - - WSW 1018,7 30 6 0,0
17.10.2017 14:00:00 15,0 8,4 - - 9 5 - - SW 1019,9 20 12 0,0
17.10.2017 13:00:00 12,5 9,5 - - 4 2 - - SSW 1020,8 2,3 0 0,0
17.10.2017 12:00:00 12,3 8,8 - - 5 3 - - SSW 1021,0 0,9 0 0,0
17.10.2017 11:00:00 12,4 9,1 - - 4 2 - - SW 1020,9 24 0 0,0
17.10.2017 10:00:00 11,5 9,1 14,5 14,4 4 2 - - SSW 1021,0 24 0 0,0
17.10.2017 09:00:00 9,0 8,2 - - 0 0 - - N 1020,5 23 0 0,0
17.10.2017 08:00:00 8,2 7,8 - - 5 3 - - WSW 1020,5 20 0 0,0
17.10.2017 07:00:00 7,1 5,6 - - 2 1 - - S 1020,4 12 0 0,0
17.10.2017 06:00:00 8,9 7,5 - - 5 3 - - SW 1019,7 18 0 0,0
17.10.2017 05:00:00 10,6 8,1 - - 11 6 - - WSW 1019,5 20 0 0,0
17.10.2017 04:00:00 10,7 8,2 - - 8 4 - - SW 1019,6 18 0 0,0
17.10.2017 03:00:00 10,9 8,2 - - 9 5 - - SW 1019,9 17 0 0,0
17.10.2017 02:00:00 12,0 8,6 - - 11 6 - - SW 1019,5 18 0 0,0
17.10.2017 01:00:00 12,6 8,1 - - 15 8 - - SW 1019,5 19 - 0,0
17.10.2017 00:00:00 12,8 8,0 - - 15 8 - - SW 1019,5 19 0 0,0
16.10.2017 23:00:00 13,4 8,9 - - 18 10 - - SW 1018,7 18 0 0,0
16.10.2017 22:00:00 13,6 8,9 - - 18 10 - - SW 1018,7 18 0 0,0
16.10.2017 21:00:00 13,8 9,3 - - 15 8 - - SW 1018,1 17 0 0,0
16.10.2017 20:00:00 14,0 9,5 - - 21 11 - - SW 1017,7 18 0 0,0
16.10.2017 19:00:00 14,9 10,2 - - 24 13 46 25 SW 1017,2 19 0 -
16.10.2017 18:00:00 15,5 10,8 - - 22 12 46 25 SW 1016,6 18 0 0,0
16.10.2017 17:00:00 16,2 11,5 - - 26 14 50 27 SW 1016,3 17 0 0,0
16.10.2017 16:00:00 17,4 13,4 - - 22 12 46 25 SW 1016,0 16 0 0,0
16.10.2017 15:00:00 18,6 15,0 - - 22 12 - - SW 1015,5 20 0 0,0
16.10.2017 14:00:00 19,6 15,4 - - 21 11 - - SSW 1015,4 26 0 0,0
16.10.2017 13:00:00 19,9 15,6 - - 16 9 - - SSW 1015,5 28 24 0,0
16.10.2017 12:00:00 20,8 15,2 - - 22 12 - - SSW 1015,3 35 54 0,0
16.10.2017 11:00:00 20,8 15,8 - - 13 7 - - SSW 1015,5 40 30 0,0
16.10.2017 10:00:00 18,8 15,9 14,7 14,4 11 6 - - SSE 1015,2 28 6 0,0
16.10.2017 09:00:00 17,2 16,6 - - 9 5 - - SSE 1015,6 23 0 0,0
16.10.2017 08:00:00 15,5 15,4 - - 9 5 - - SE 1016,1 13 0 0,0
16.10.2017 07:00:00 13,7 13,3 - - 2 1 - - E 1016,0 7 0 0,0
16.10.2017 06:00:00 14,4 13,8 - - 2 1 - - SE 1016,2 6 0 0,0
16.10.2017 05:00:00 16,2 15,7 - - 5 3 - - WSW 1016,6 21 0 0,0
16.10.2017 04:00:00 15,4 15,3 - - 5 3 - - S 1016,5 13 0 0,0
16.10.2017 03:00:00 14,4 14,3 - - 5 3 - - SSW 1016,8 12 0 0,0
16.10.2017 02:00:00 14,6 14,5 - - 5 3 - - SSW 1016,9 11 0 0,0
16.10.2017 01:00:00 10,9 10,7 - - 4 2 - - S 1017,3 1,6 - 0,0
16.10.2017 00:00:00 10,5 10,3 - - 2 1 - - NNE 1017,2 1,7 0 0,0
15.10.2017 23:00:00 10,5 10,2 - - 2 1 - - N 1017,3 1,2 0 0,0
15.10.2017 22:00:00 10,8 10,4 - - 0 0 - - N 1017,6 1,3 0 0,0
15.10.2017 21:00:00 11,5 10,9 - - 2 1 - - SW 1017,7 1,4 0 0,0
15.10.2017 20:00:00 12,7 11,9 - - 4 2 - - S 1017,6 3,3 0 0,0
15.10.2017 19:00:00 13,6 12,3 - - 4 2 - - S 1017,8 4,9 0 0,0
15.10.2017 18:00:00 15,1 12,7 - - 8 4 - - S 1017,5 12 0 0,0
15.10.2017 17:00:00 16,2 13,1 - - 15 8 - - SSW 1017,5 15 0 0,0
15.10.2017 16:00:00 18,0 13,9 - - 9 5 - - SSW 1017,6 17 54 0,0
15.10.2017 15:00:00 18,6 14,1 - - 11 6 - - SW 1017,9 21 12 0,0
15.10.2017 14:00:00 17,0 12,7 - - 21 11 - - SW 1018,0 19 12 0,0
15.10.2017 13:00:00 17,6 14,2 - - 13 7 - - SSW 1018,3 3,3 6 0,0
15.10.2017 12:00:00 17,3 14,8 - - 11 6 - - SSW 1018,4 16 0 0,0
15.10.2017 11:00:00 16,3 15,4 - - 9 5 - - SW 1018,7 11 0 0,0
15.10.2017 10:00:00 15,2 15,0 14,7 14,4 9 5 - - SSW 1018,8 7 0 0,0
15.10.2017 09:00:00 14,6 14,6 - - 11 6 - - SSW 1018,6 15 0 0,0
15.10.2017 08:00:00 9,5 9,5 - - 4 2 - - S 1018,5 5 0 0,0
15.10.2017 07:00:00 8,0 7,8 - - 2 1 - - N 1018,7 0,2 0 0,2
15.10.2017 06:00:00 8,9 8,7 - - 2 1 - - NNW 1019,2 0,2 0 0,0
15.10.2017 05:00:00 9,7 9,5 - - 4 2 - - NNE 1019,7 0,2 0 0,0
15.10.2017 04:00:00 10,8 10,6 - - 2 1 - - N 1020,1 0,2 0 0,0
15.10.2017 03:00:00 11,7 11,5 - - 4 2 - - NE 1020,8 0,1 0 0,0
15.10.2017 02:00:00 12,2 12,1 - - 4 2 - - NE 1021,4 0,4 0 0,0
15.10.2017 01:00:00 11,7 11,6 - - 0 0 - - N 1022,0 0,5 - 0,0
15.10.2017 00:00:00 11,3 11,1 - - 4 2 - - SE 1022,4 0,5 0 0,0
14.10.2017 23:00:00 12,7 12,5 - - 2 1 - - S 1022,7 1,6 0 0,0
14.10.2017 22:00:00 12,7 12,5 - - 5 3 - - S 1022,9 2,2 0 0,0
14.10.2017 21:00:00 11,7 11,0 - - 0 0 - - N 1023,4 3,1 0 0,0
14.10.2017 20:00:00 13,2 12,6 - - 4 2 - - SSW 1023,7 2,6 0 0,0
14.10.2017 19:00:00 14,3 13,1 - - 4 2 - - S 1024,3 8 0 0,0
14.10.2017 18:00:00 16,9 14,7 - - 4 2 - - SSW 1024,1 29 0 0,0
14.10.2017 17:00:00 17,4 15,0 - - 8 4 - - S 1024,2 18 0 0,0
14.10.2017 16:00:00 17,8 14,8 - - 8 4 - - S 1024,2 30 0 0,0
14.10.2017 15:00:00 18,3 14,6 - - 9 5 - - WSW 1024,5 40 0 0,0
14.10.2017 14:00:00 18,7 15,1 - - 11 6 - - WSW 1024,7 35 0 0,0
14.10.2017 13:00:00 17,6 15,3 - - 13 7 - - SW 1025,0 29 0 0,0
14.10.2017 12:00:00 17,6 15,1 - - 11 6 - - SW 1025,1 26 0 0,0
14.10.2017 11:00:00 16,9 15,1 - - 11 6 - - SW 1025,5 27 0 0,0
14.10.2017 10:00:00 16,3 14,7 14,7 14,4 11 6 - - SW 1025,2 25 0 0,0
14.10.2017 09:00:00 15,6 14,6 - - 9 5 - - SSW 1024,8 16 0 0,0
14.10.2017 08:00:00 15,1 14,3 - - 9 5 - - SW 1024,6 15 0 0,0

tt = temperature
td = dewpoint
tt -20cm = temperature -20cm
tt -100cm = temperature -100cm
ff = wind speed
fx = gusts
dd = wind direction
ppp = reduced air pressure
vv = visibility
sd = sunshine duration
rr = precipitation

Next stations